Date,Time,Wetness (Wet Dry or Ice),Wind Speed (m/s),Temperature (C),Humidity (%),Pressure (mb),Radiation (W/m^2)
2019-06-25,00:15:00,DRY,7.05,13.40,49.0,776.00,1.4
2019-06-25,00:20:00,DRY,6.40,13.33,50.0,775.33,1.5
2019-06-25,00:25:00,DRY,5.60,13.40,49.0,775.00,1.1
2019-06-25,00:30:00,DRY,6.47,13.40,49.3,775.00,1.5
2019-06-25,00:35:00,DRY,6.30,13.20,50.0,775.00,1.3
2019-06-25,00:40:00,DRY,5.57,13.07,49.0,775.00,1.2
2019-06-25,00:45:00,DRY,3.10,12.95,48.5,775.00,1.5
2019-06-25,00:50:00,DRY,6.20,13.00,47.3,775.00,1.0
2019-06-25,00:55:00,DRY,6.00,13.10,47.0,775.00,0.3
2019-06-25,01:00:00,DRY,5.63,13.07,44.7,775.00,1.3
2019-06-25,01:05:00,DRY,6.95,13.00,42.0,775.00,1.0
2019-06-25,01:10:00,DRY,5.80,13.07,43.3,775.00,1.4
2019-06-25,01:15:00,DRY,4.55,13.05,41.5,775.00,1.1
2019-06-25,01:20:00,DRY,6.37,13.10,36.7,775.00,1.2
2019-06-25,01:25:00,DRY,4.70,13.15,35.5,775.00,1.0
2019-06-25,01:30:00,DRY,7.00,13.23,33.0,775.00,1.0
2019-06-25,01:35:00,DRY,5.55,13.10,27.5,775.00,1.1
2019-06-25,01:40:00,DRY,6.00,13.20,28.0,775.00,1.2
2019-06-25,01:45:00,DRY,5.10,13.05,20.5,775.00,0.9
2019-06-25,01:50:00,DRY,4.87,12.93,21.0,775.00,0.9
2019-06-25,01:55:00,DRY,6.50,13.00,20.0,775.00,1.4
2019-06-25,02:00:00,DRY,5.27,13.13,20.7,775.00,1.7
2019-06-25,02:05:00,DRY,5.45,13.10,20.5,775.00,1.8
2019-06-25,02:10:00,DRY,4.37,13.10,19.3,775.00,1.5
2019-06-25,02:15:00,DRY,3.95,13.10,19.5,775.00,1.5
2019-06-25,02:20:00,DRY,6.23,13.23,21.7,774.67,1.2
2019-06-25,02:25:00,DRY,6.05,13.30,22.0,775.00,1.1
2019-06-25,02:30:00,DRY,3.67,13.30,22.7,774.67,1.2
2019-06-25,02:35:00,DRY,3.15,13.25,24.0,775.00,0.8
2019-06-25,02:40:00,DRY,5.17,13.23,24.3,774.67,1.1
2019-06-25,02:45:00,DRY,6.10,13.20,26.5,774.50,1.8
2019-06-25,02:50:00,DRY,4.07,13.30,28.7,774.33,0.9
2019-06-25,02:55:00,DRY,3.55,13.35,31.0,774.00,1.3
2019-06-25,03:00:00,DRY,4.23,13.30,28.7,774.33,1.2
2019-06-25,03:05:00,DRY,3.95,13.25,29.0,774.50,1.1
2019-06-25,03:10:00,DRY,4.07,13.23,31.3,774.00,1.3
2019-06-25,03:15:00,DRY,5.70,13.20,31.0,774.00,1.2
2019-06-25,03:20:00,DRY,4.23,13.20,29.7,774.00,1.2
2019-06-25,03:25:00,DRY,4.90,13.20,30.0,774.00,0.9
2019-06-25,03:30:00,DRY,4.30,13.13,31.3,774.00,1.1
2019-06-25,03:35:00,DRY,5.10,13.10,31.5,774.00,1.4
2019-06-25,03:40:00,DRY,6.10,13.10,34.7,774.00,1.1
2019-06-25,03:45:00,DRY,6.00,13.10,33.5,774.00,1.2
2019-06-25,03:50:00,DRY,5.90,13.07,33.7,774.00,1.1
2019-06-25,03:55:00,DRY,8.45,12.90,35.0,774.00,1.2
2019-06-25,04:00:00,DRY,3.90,12.83,36.3,774.00,0.8
2019-06-25,04:05:00,DRY,4.45,12.80,37.5,774.00,1.3
2019-06-25,04:10:00,DRY,3.43,12.80,36.7,774.00,1.3
2019-06-25,04:15:00,DRY,3.30,12.75,36.5,774.00,1.4
2019-06-25,04:20:00,DRY,6.70,12.63,34.0,774.00,1.3
2019-06-25,04:25:00,DRY,8.55,12.55,35.0,774.00,1.1
2019-06-25,04:30:00,DRY,4.43,12.50,24.3,774.00,1.1
2019-06-25,04:35:00,DRY,5.65,12.50,26.0,774.00,0.8
2019-06-25,04:40:00,DRY,4.30,12.50,31.7,774.00,0.9
2019-06-25,04:45:00,DRY,6.00,12.50,31.0,774.00,1.5
2019-06-25,04:50:00,DRY,4.57,12.70,24.7,774.00,0.9
2019-06-25,04:55:00,DRY,5.55,12.80,19.0,774.00,1.2
2019-06-25,05:00:00,DRY,4.83,12.63,20.7,774.00,1.1
2019-06-25,05:05:00,DRY,7.10,12.60,19.5,774.00,1.2
2019-06-25,05:10:00,DRY,5.87,12.60,16.7,774.00,1.3
2019-06-25,05:15:00,DRY,5.55,12.55,15.0,774.00,1.1
2019-06-25,05:20:00,DRY,5.87,12.60,14.0,774.00,1.1
2019-06-25,05:25:00,DRY,6.20,12.65,13.0,774.00,1.2
2019-06-25,05:30:00,DRY,5.63,12.97,11.7,774.00,1.1
2019-06-25,05:35:00,DRY,7.40,12.95,12.0,774.00,0.7
2019-06-25,05:40:00,DRY,5.87,12.93,12.0,774.00,1.2
2019-06-25,05:45:00,DRY,4.95,12.90,12.0,774.00,0.8
2019-06-25,05:50:00,DRY,6.00,12.87,12.0,774.00,1.3
2019-06-25,05:55:00,DRY,6.50,12.90,12.0,774.00,1.6
2019-06-25,06:00:00,DRY,6.93,13.03,11.7,774.00,1.9
2019-06-25,06:05:00,DRY,7.25,13.05,11.0,774.00,3.0
2019-06-25,06:10:00,DRY,4.45,12.95,11.0,774.00,5.1
2019-06-25,06:15:00,DRY,6.45,12.85,10.5,774.00,6.8
2019-06-25,06:20:00,DRY,5.80,12.97,10.0,774.00,11.2
2019-06-25,06:25:00,DRY,5.15,13.10,10.0,774.00,28.4
2019-06-25,06:30:00,DRY,6.10,13.17,10.0,774.00,42.6
2019-06-25,06:35:00,DRY,5.35,13.45,11.0,774.00,26.8
2019-06-25,06:40:00,DRY,6.07,13.53,10.3,774.00,67.0
2019-06-25,06:45:00,DRY,6.35,13.50,10.5,774.00,106.2
2019-06-25,06:50:00,DRY,6.33,13.53,10.0,774.00,123.4
2019-06-25,06:55:00,DRY,5.10,13.55,10.0,774.00,141.0
2019-06-25,07:00:00,DRY,6.00,13.47,10.0,774.00,159.8
2019-06-25,07:05:00,DRY,5.90,13.45,10.0,774.00,179.4
2019-06-25,07:10:00,DRY,5.77,13.50,10.0,774.00,198.3
2019-06-25,07:15:00,DRY,6.75,13.55,10.5,774.00,218.1
2019-06-25,07:20:00,DRY,7.07,13.63,10.0,774.00,238.8
2019-06-25,07:25:00,DRY,4.40,13.60,10.0,774.50,259.2
2019-06-25,07:30:00,DRY,5.33,13.70,10.0,774.67,279.4
2019-06-25,07:35:00,DRY,5.55,13.80,10.0,775.00,299.6
2019-06-25,07:40:00,DRY,4.97,13.93,10.0,775.00,320.8
2019-06-25,07:45:00,DRY,4.65,14.00,10.0,775.00,340.9
2019-06-25,07:50:00,DRY,4.57,14.10,10.0,775.00,363.4
2019-06-25,07:55:00,DRY,5.75,14.05,10.0,775.00,383.6
2019-06-25,08:00:00,DRY,4.03,14.30,10.0,775.00,404.5
2019-06-25,08:05:00,DRY,3.10,14.40,10.0,775.00,425.1
2019-06-25,08:10:00,DRY,3.77,14.43,10.7,775.00,445.6
2019-06-25,08:15:00,DRY,5.25,14.60,10.5,775.00,465.9
2019-06-25,08:20:00,DRY,3.40,14.70,10.0,775.00,485.5
2019-06-25,08:25:00,DRY,5.75,14.75,12.0,775.00,505.8
2019-06-25,08:30:00,DRY,4.70,14.77,10.0,775.00,526.6
2019-06-25,08:35:00,DRY,5.50,14.85,10.5,775.00,544.8
2019-06-25,08:40:00,DRY,4.20,14.93,10.0,775.00,564.7
2019-06-25,08:45:00,DRY,2.10,15.10,10.5,775.00,583.4
2019-06-25,08:50:00,DRY,3.80,15.03,10.3,775.00,601.6
2019-06-25,08:55:00,DRY,3.90,15.05,10.5,775.00,620.8
2019-06-25,09:00:00,DRY,4.43,14.90,10.0,775.00,638.4
2019-06-25,09:05:00,DRY,5.20,15.15,10.5,775.00,656.4
2019-06-25,09:10:00,DRY,4.17,15.13,9.7,775.00,674.8
2019-06-25,09:15:00,DRY,2.75,15.15,10.0,775.00,692.9
2019-06-25,09:20:00,DRY,4.83,15.20,9.7,775.00,711.4
2019-06-25,09:25:00,DRY,3.90,15.25,9.5,775.00,729.4
2019-06-25,09:30:00,DRY,3.73,15.37,10.0,775.00,745.3
2019-06-25,09:35:00,DRY,3.35,15.75,10.5,775.00,761.5
2019-06-25,09:40:00,DRY,4.87,15.80,10.0,775.00,777.7
2019-06-25,09:45:00,DRY,2.75,16.00,10.0,775.00,796.3
2019-06-25,09:50:00,DRY,4.85,16.05,9.5,775.00,812.7
2019-06-25,09:55:00,DRY,3.55,16.10,9.5,775.00,826.0
2019-06-25,10:00:00,DRY,3.00,16.13,10.0,775.00,840.0
2019-06-25,10:05:00,DRY,3.95,16.15,9.5,775.00,853.5
2019-06-25,10:10:00,DRY,3.57,16.43,9.7,775.00,868.0
2019-06-25,10:15:00,DRY,3.75,16.50,9.0,775.00,882.1
2019-06-25,10:20:00,DRY,4.13,16.50,9.7,775.00,895.9
2019-06-25,10:25:00,DRY,4.40,16.65,10.0,775.00,909.7
2019-06-25,10:30:00,DRY,4.13,16.77,9.7,775.00,923.0
2019-06-25,10:35:00,DRY,3.65,16.85,9.0,775.00,935.8
2019-06-25,10:40:00,DRY,3.77,16.93,9.0,775.00,949.1
2019-06-25,10:45:00,DRY,5.00,17.35,8.5,775.00,960.5
2019-06-25,10:50:00,DRY,4.20,16.93,8.3,775.33,972.9
2019-06-25,10:55:00,DRY,4.20,16.95,8.5,775.00,984.4
2019-06-25,11:00:00,DRY,5.07,17.17,8.7,775.00,995.6
2019-06-25,11:05:00,DRY,4.60,17.30,9.0,775.00,1005.5
2019-06-25,11:10:00,DRY,4.53,17.23,8.0,776.00,1017.4
2019-06-25,11:15:00,DRY,5.30,17.25,8.5,776.00,1026.4
2019-06-25,11:20:00,DRY,4.83,17.40,8.7,776.00,1035.7
2019-06-25,11:25:00,DRY,3.35,17.25,8.5,776.00,1045.2
2019-06-25,11:30:00,DRY,3.67,17.43,9.0,776.00,1053.2
2019-06-25,11:35:00,DRY,5.10,17.60,8.5,776.00,1061.4
2019-06-25,11:40:00,DRY,2.57,17.90,9.0,775.67,1070.3
2019-06-25,11:45:00,DRY,4.70,17.90,10.0,776.00,1076.5
2019-06-25,11:50:00,DRY,4.53,18.07,9.3,776.00,1082.5
2019-06-25,11:55:00,DRY,3.25,17.80,9.0,776.00,1089.3
2019-06-25,12:00:00,DRY,2.13,18.17,10.0,776.00,1095.2
2019-06-25,12:05:00,DRY,3.20,18.20,9.5,776.00,1098.8
2019-06-25,12:10:00,DRY,5.27,18.03,9.3,776.00,1104.7
2019-06-25,12:15:00,DRY,5.60,17.80,9.5,776.00,1106.8
2019-06-25,12:20:00,DRY,3.67,18.03,10.0,776.00,1112.5
2019-06-25,12:25:00,DRY,3.65,18.25,9.0,776.00,1115.7
2019-06-25,12:30:00,DRY,4.20,18.07,9.3,776.00,1118.3
2019-06-25,12:35:00,DRY,5.65,18.30,9.5,776.00,1121.5
2019-06-25,12:40:00,DRY,5.50,17.87,12.0,776.00,1123.0
2019-06-25,12:45:00,DRY,4.10,17.65,11.5,776.00,1124.6
2019-06-25,12:50:00,DRY,4.67,18.00,12.0,776.00,1127.2
2019-06-25,12:55:00,DRY,4.60,17.75,11.5,776.00,1128.4
2019-06-25,13:00:00,DRY,5.57,17.73,12.0,776.00,1130.5
2019-06-25,13:05:00,DRY,4.70,18.05,11.5,776.00,1131.5
2019-06-25,13:10:00,DRY,5.50,17.37,13.7,776.00,1130.7
2019-06-25,13:15:00,DRY,4.25,17.65,15.0,776.00,1129.5
2019-06-25,13:20:00,DRY,2.60,18.43,16.0,776.00,1130.3
2019-06-25,13:25:00,DRY,4.10,18.20,16.5,776.00,1132.7
2019-06-25,13:30:00,DRY,4.80,18.00,15.0,776.00,1131.8
2019-06-25,13:35:00,DRY,1.70,18.30,17.0,776.00,1132.5
2019-06-25,13:40:00,DRY,3.77,17.77,17.3,776.00,1133.5
2019-06-25,13:45:00,DRY,2.65,18.05,17.5,776.00,1131.9
2019-06-25,13:50:00,DRY,2.93,18.03,17.3,776.00,1131.0
2019-06-25,13:55:00,DRY,4.45,18.20,18.5,776.00,1128.2
2019-06-25,14:00:00,DRY,3.03,17.77,18.3,776.00,1124.7
2019-06-25,14:05:00,DRY,2.90,17.60,18.0,776.00,1120.5
2019-06-25,14:10:00,DRY,3.90,18.07,18.3,776.00,1115.8
2019-06-25,14:15:00,DRY,3.45,17.75,18.5,776.00,1110.0
2019-06-25,14:20:00,DRY,2.97,17.83,18.7,776.00,1107.3
2019-06-25,14:25:00,DRY,2.40,18.05,19.0,776.00,1101.3
2019-06-25,14:30:00,DRY,2.23,18.13,17.7,776.00,1096.0
2019-06-25,14:35:00,DRY,3.45,17.80,18.0,776.00,1091.5
2019-06-25,14:40:00,DRY,2.57,18.27,18.0,776.00,1083.3
2019-06-25,14:45:00,DRY,3.05,18.50,19.0,775.50,1076.4
2019-06-25,14:50:00,DRY,2.40,18.23,19.3,776.00,1069.3
2019-06-25,14:55:00,DRY,3.85,17.65,20.0,776.00,1060.2
2019-06-25,15:00:00,DRY,3.00,17.23,19.0,775.67,1049.5
2019-06-25,15:05:00,DRY,3.45,17.40,18.0,776.00,1040.8
2019-06-25,15:10:00,DRY,3.27,17.83,16.3,775.33,1030.3
2019-06-25,15:15:00,DRY,2.65,18.20,16.5,775.50,1020.6
2019-06-25,15:20:00,DRY,3.33,18.33,17.0,775.00,1011.8
2019-06-25,15:25:00,DRY,3.50,17.35,18.5,775.50,997.9
2019-06-25,15:30:00,DRY,4.63,17.43,17.7,775.67,987.0
2019-06-25,15:35:00,DRY,3.20,17.10,18.0,775.00,973.9
2019-06-25,15:40:00,DRY,5.63,17.33,17.3,775.33,961.8
2019-06-25,15:45:00,DRY,6.95,17.45,17.0,776.00,948.0
2019-06-25,15:50:00,DRY,3.93,17.27,18.0,776.00,934.4
2019-06-25,15:55:00,DRY,3.35,18.05,17.0,776.00,922.9
2019-06-25,16:00:00,DRY,3.17,17.93,16.7,776.00,907.0
2019-06-25,16:05:00,DRY,1.65,17.70,19.5,776.00,893.8
2019-06-25,16:10:00,DRY,3.17,17.67,19.0,776.00,878.4
2019-06-25,16:15:00,DRY,2.10,17.55,18.5,776.00,865.3
2019-06-25,16:20:00,DRY,2.23,17.37,19.0,776.00,849.2
2019-06-25,16:25:00,DRY,1.65,17.35,18.5,776.00,833.2
2019-06-25,16:30:00,DRY,4.97,17.63,17.7,776.00,818.1
2019-06-25,16:35:00,DRY,4.30,17.70,17.0,776.00,800.9
2019-06-25,16:40:00,DRY,4.80,17.20,16.3,776.00,784.2
2019-06-25,16:45:00,DRY,2.30,16.95,17.0,776.00,768.2
2019-06-25,16:50:00,DRY,3.27,17.30,16.7,776.00,751.6
2019-06-25,16:55:00,DRY,4.60,17.30,17.0,776.00,733.6
2019-06-25,17:00:00,DRY,2.33,17.03,18.3,776.00,717.2
2019-06-25,17:05:00,DRY,1.50,16.75,18.0,776.00,699.7
2019-06-25,17:10:00,DRY,3.23,17.07,17.0,776.00,680.1
2019-06-25,17:15:00,DRY,2.85,17.05,17.0,776.00,661.1
2019-06-25,17:20:00,DRY,2.70,17.13,16.0,776.00,643.2
2019-06-25,17:25:00,DRY,1.75,16.75,17.0,776.00,624.8
2019-06-25,17:30:00,DRY,3.87,16.70,16.3,776.00,605.3
2019-06-25,17:35:00,DRY,3.55,16.85,15.5,776.00,585.0
2019-06-25,17:40:00,DRY,4.47,16.70,15.3,776.00,565.8
2019-06-25,17:45:00,DRY,1.85,16.95,15.5,776.00,546.6
2019-06-25,17:50:00,DRY,2.47,16.80,16.3,776.00,526.8
2019-06-25,17:55:00,DRY,2.60,16.40,17.5,776.00,506.3
2019-06-25,18:00:00,DRY,3.80,16.40,19.0,776.00,485.7
2019-06-25,18:05:00,DRY,2.75,16.60,15.5,776.00,466.7
2019-06-25,18:10:00,DRY,1.87,16.23,15.7,776.00,446.3
2019-06-25,18:15:00,DRY,2.95,16.15,15.5,776.00,426.8
2019-06-25,18:20:00,DRY,4.80,15.97,15.3,776.00,405.7
2019-06-25,18:25:00,DRY,3.70,15.55,17.5,776.00,385.5
2019-06-25,18:30:00,DRY,3.40,15.93,16.7,776.00,364.5
2019-06-25,18:35:00,DRY,3.35,16.15,16.5,776.00,344.5
2019-06-25,18:40:00,DRY,3.77,16.30,16.3,776.00,323.5
2019-06-25,18:45:00,DRY,2.55,16.00,15.5,776.00,301.8
2019-06-25,18:50:00,DRY,2.20,15.80,17.0,776.00,281.2
2019-06-25,18:55:00,DRY,4.35,15.65,15.5,776.00,261.5
2019-06-25,19:00:00,DRY,3.40,15.47,16.0,776.00,241.8
2019-06-25,19:05:00,DRY,2.15,15.60,16.0,776.00,221.0
2019-06-25,19:10:00,DRY,2.70,15.43,16.3,776.00,201.0
2019-06-25,19:15:00,DRY,2.45,15.45,15.5,776.00,183.8
2019-06-25,19:20:00,DRY,1.83,15.30,17.3,776.00,165.8
2019-06-25,19:25:00,DRY,2.35,15.00,18.0,776.00,148.4
2019-06-25,19:30:00,DRY,3.10,14.73,19.0,776.00,130.8
2019-06-25,19:35:00,DRY,2.85,14.85,17.0,776.00,110.0
2019-06-25,19:40:00,DRY,1.97,14.80,15.3,776.00,88.4
2019-06-25,19:45:00,DRY,3.75,14.50,17.0,776.00,67.4
2019-06-25,19:50:00,DRY,3.13,14.53,14.0,776.00,49.8
2019-06-25,19:55:00,DRY,2.85,14.45,14.5,776.00,35.2
2019-06-25,20:00:00,DRY,3.70,14.40,14.3,776.00,23.4
2019-06-25,20:05:00,DRY,2.60,14.40,14.0,776.00,14.4
2019-06-25,20:10:00,DRY,3.43,14.27,14.0,776.00,10.9
2019-06-25,20:15:00,DRY,4.45,14.10,15.0,776.00,8.0
2019-06-25,20:20:00,DRY,4.50,14.17,14.0,776.00,4.2
2019-06-25,20:25:00,DRY,4.25,14.10,15.0,776.00,2.6
2019-06-25,20:30:00,DRY,3.93,14.13,14.0,776.00,2.2
2019-06-25,20:35:00,DRY,4.05,14.15,14.5,776.00,1.1
2019-06-25,20:40:00,DRY,2.80,14.00,15.7,776.00,1.4
2019-06-25,20:45:00,DRY,3.55,14.10,15.0,776.00,2.0
2019-06-25,20:50:00,DRY,3.57,13.87,15.7,776.33,1.7
2019-06-25,20:55:00,DRY,5.20,13.75,17.0,777.00,1.4
2019-06-25,21:00:00,DRY,3.23,13.73,17.0,777.00,1.1
2019-06-25,21:05:00,DRY,2.85,13.55,17.5,777.00,1.8
2019-06-25,21:10:00,DRY,3.67,13.33,19.7,777.00,1.1
2019-06-25,21:15:00,DRY,3.85,13.30,21.0,777.00,1.3
2019-06-25,21:20:00,DRY,3.83,13.17,20.7,777.00,1.6
2019-06-25,21:25:00,DRY,3.10,13.20,20.0,777.00,1.2
2019-06-25,21:30:00,DRY,2.60,13.27,20.3,777.00,1.7
2019-06-25,21:35:00,DRY,2.10,13.40,18.0,777.00,1.1
2019-06-25,21:40:00,DRY,3.50,13.43,19.0,777.00,1.2
2019-06-25,21:45:00,DRY,3.60,13.50,18.0,777.00,1.4
2019-06-25,21:50:00,DRY,3.03,13.53,18.0,777.00,1.3
2019-06-25,21:55:00,DRY,3.75,13.45,19.0,777.00,1.0
2019-06-25,22:00:00,DRY,3.33,13.33,20.0,777.00,0.9
2019-06-25,22:05:00,DRY,3.35,13.30,20.5,777.00,0.9
2019-06-25,22:10:00,DRY,3.23,13.20,19.7,777.00,0.9
2019-06-25,22:15:00,DRY,1.60,13.25,18.5,777.00,1.6
2019-06-25,22:20:00,DRY,2.83,13.13,18.3,777.00,1.0
2019-06-25,22:25:00,DRY,2.35,13.20,18.5,777.00,1.8
2019-06-25,22:30:00,DRY,3.77,13.20,17.3,777.00,1.1
2019-06-25,22:35:00,DRY,2.05,13.20,16.5,777.00,1.1
2019-06-25,22:40:00,DRY,3.87,13.30,17.3,777.00,1.1
2019-06-25,22:45:00,DRY,2.55,13.30,16.0,777.00,1.9
2019-06-25,22:50:00,DRY,3.87,13.30,15.0,777.00,1.2
2019-06-25,22:55:00,DRY,3.20,13.30,11.0,777.00,1.4
2019-06-25,23:00:00,DRY,2.87,13.30,10.0,777.00,1.5
2019-06-25,23:05:00,DRY,3.10,13.45,8.0,777.00,1.6
2019-06-25,23:10:00,DRY,3.50,13.40,7.0,777.00,1.2
2019-06-25,23:15:00,DRY,1.75,13.50,7.5,777.00,0.9
2019-06-25,23:20:00,DRY,3.93,13.53,7.3,777.00,1.3
2019-06-25,23:25:00,DRY,4.15,13.50,11.0,777.00,1.0
2019-06-25,23:30:00,DRY,5.53,13.50,8.3,777.00,1.2
2019-06-25,23:35:00,DRY,4.70,13.55,8.5,777.00,2.3
2019-06-25,23:40:00,DRY,3.83,13.57,10.7,777.00,1.1
2019-06-25,23:45:00,DRY,4.35,13.75,11.5,777.00,1.1
2019-06-25,23:50:00,DRY,3.60,13.80,10.7,777.00,1.3
2019-06-25,23:55:00,DRY,3.25,13.75,8.5,777.00,1.4
2019-06-26,00:00:00,DRY,4.03,13.67,9.7,777.00,1.3
2019-06-26,00:05:00,DRY,4.30,13.75,9.0,777.00,1.3
2019-06-26,00:10:00,DRY,2.87,13.73,12.0,777.00,2.2
2019-06-26,00:15:00,DRY,4.05,13.80,9.5,777.00,1.1
2019-06-26,00:20:00,DRY,3.20,13.73,12.0,777.00,1.3
2019-06-26,00:25:00,DRY,3.45,13.60,9.0,777.00,1.6
2019-06-26,00:30:00,DRY,4.30,13.77,11.7,777.00,1.6
2019-06-26,00:35:00,DRY,2.80,13.70,11.0,777.00,1.6
2019-06-26,00:40:00,DRY,2.87,13.80,10.0,777.00,1.1
2019-06-26,00:45:00,DRY,4.35,13.85,14.0,777.00,1.1
2019-06-26,00:50:00,DRY,5.43,13.87,13.0,777.00,1.1
2019-06-26,00:55:00,DRY,4.00,13.75,10.0,777.00,2.1
2019-06-26,01:00:00,DRY,3.50,13.63,8.3,777.00,1.5
2019-06-26,01:05:00,DRY,3.15,13.70,11.0,777.00,0.9
2019-06-26,01:10:00,DRY,2.93,13.70,7.3,777.00,0.7
2019-06-26,01:15:00,DRY,2.25,13.60,8.5,777.00,1.4
2019-06-26,01:20:00,DRY,3.97,13.57,7.7,777.00,1.2
2019-06-26,01:25:00,DRY,2.70,13.40,6.0,777.00,1.3
2019-06-26,01:30:00,DRY,3.87,13.23,6.0,777.00,1.6
2019-06-26,01:35:00,DRY,5.05,13.25,6.0,776.50,1.0
2019-06-26,01:40:00,DRY,2.13,13.33,7.3,776.33,1.7
2019-06-26,01:45:00,DRY,4.55,13.60,7.5,776.00,1.4
2019-06-26,01:50:00,DRY,3.27,13.43,6.0,776.00,0.8
2019-06-26,01:55:00,DRY,6.45,13.30,5.5,776.00,1.1
2019-06-26,02:00:00,DRY,3.07,13.33,6.3,776.00,1.8
2019-06-26,02:05:00,DRY,3.75,13.40,6.0,776.00,1.5
2019-06-26,02:10:00,DRY,3.20,13.47,6.3,776.00,1.5
2019-06-26,02:15:00,DRY,4.75,13.45,6.5,776.00,1.2
2019-06-26,02:20:00,DRY,2.37,13.57,6.7,776.00,1.4
2019-06-26,02:25:00,DRY,2.20,13.55,6.5,776.00,1.2
2019-06-26,02:30:00,DRY,3.30,13.53,5.7,776.00,0.9
2019-06-26,02:35:00,DRY,1.90,13.55,5.0,776.00,1.9
2019-06-26,02:40:00,DRY,3.10,13.50,5.3,776.00,1.4
2019-06-26,02:45:00,DRY,2.55,13.55,5.0,776.00,1.1
2019-06-26,02:50:00,DRY,2.63,13.50,5.3,776.00,1.0
2019-06-26,02:55:00,DRY,2.70,13.55,4.5,776.00,0.9
2019-06-26,03:00:00,DRY,1.63,13.43,4.0,776.00,0.7
2019-06-26,03:05:00,DRY,2.25,13.50,4.0,776.00,2.8
2019-06-26,03:10:00,DRY,2.47,13.47,4.3,776.00,1.4
2019-06-26,03:15:00,DRY,4.80,13.50,4.5,776.00,1.1
2019-06-26,03:20:00,DRY,2.73,13.57,5.0,776.00,1.3
2019-06-26,03:25:00,DRY,3.25,13.60,5.0,776.00,1.0
2019-06-26,03:30:00,DRY,2.90,13.60,4.0,776.00,1.3
2019-06-26,03:35:00,DRY,3.35,13.65,4.5,776.00,1.0
2019-06-26,03:40:00,DRY,1.47,13.77,4.7,776.00,1.0
2019-06-26,03:45:00,DRY,3.00,13.75,4.0,776.00,0.8
2019-06-26,03:50:00,DRY,2.77,13.63,4.0,776.00,1.3
2019-06-26,03:55:00,DRY,2.50,13.65,4.0,776.00,0.9
2019-06-26,04:00:00,DRY,3.10,13.50,4.0,776.00,0.8
2019-06-26,04:05:00,DRY,3.40,13.55,4.0,776.00,2.1
2019-06-26,04:10:00,DRY,1.97,13.57,4.0,776.00,1.7
2019-06-26,04:15:00,DRY,1.75,13.55,4.0,776.00,1.2
2019-06-26,04:20:00,DRY,1.60,13.33,4.0,776.00,1.5
2019-06-26,04:25:00,DRY,2.35,13.30,4.5,776.00,0.7
2019-06-26,04:30:00,DRY,1.93,13.23,4.0,776.00,1.5
2019-06-26,04:35:00,DRY,3.80,13.25,4.0,776.00,0.7
2019-06-26,04:40:00,DRY,3.37,13.17,4.0,776.00,0.9
2019-06-26,04:45:00,DRY,4.10,13.10,4.0,776.00,1.1
2019-06-26,04:50:00,DRY,5.23,13.03,5.0,775.67,1.2
2019-06-26,04:55:00,DRY,3.75,12.85,4.0,776.00,1.2
2019-06-26,05:00:00,DRY,5.40,13.00,4.0,776.00,1.2
2019-06-26,05:05:00,DRY,6.50,13.15,4.5,776.00,1.0
2019-06-26,05:10:00,DRY,5.53,13.13,4.7,776.00,1.3
2019-06-26,05:15:00,DRY,4.65,13.30,4.5,776.00,1.0
2019-06-26,05:20:00,DRY,5.70,13.40,3.7,776.00,1.5
2019-06-26,05:25:00,DRY,3.75,13.40,4.0,776.00,1.1
2019-06-26,05:30:00,DRY,4.83,13.53,3.0,776.00,1.0
2019-06-26,05:35:00,DRY,5.20,13.35,3.0,776.00,1.4
2019-06-26,05:40:00,DRY,5.27,13.57,3.0,776.00,1.2
2019-06-26,05:45:00,DRY,4.70,13.30,2.0,776.00,1.7
2019-06-26,05:50:00,DRY,5.83,13.17,2.7,776.00,1.4
2019-06-26,05:55:00,DRY,4.40,13.30,3.5,776.00,1.5
2019-06-26,06:00:00,DRY,4.67,13.10,2.7,776.00,2.1
2019-06-26,06:05:00,DRY,5.55,13.05,2.0,776.00,3.5
2019-06-26,06:10:00,DRY,5.53,12.93,2.3,776.00,4.9
2019-06-26,06:15:00,DRY,5.35,12.70,3.0,776.00,6.8
2019-06-26,06:20:00,DRY,4.93,13.00,2.3,776.00,10.8
2019-06-26,06:25:00,DRY,5.55,13.05,3.0,776.00,27.4
2019-06-26,06:30:00,DRY,5.77,13.20,2.3,776.00,41.8
2019-06-26,06:35:00,DRY,4.95,13.00,2.0,776.00,26.8
2019-06-26,06:40:00,DRY,5.80,13.37,2.0,776.00,65.7
2019-06-26,06:45:00,DRY,6.00,13.55,3.0,776.00,104.3
2019-06-26,06:50:00,DRY,6.05,13.70,2.5,776.00,121.4
2019-06-26,06:55:00,DRY,4.95,13.75,3.5,776.00,139.6
2019-06-26,07:00:00,DRY,4.67,13.80,3.3,776.00,157.6
2019-06-26,07:05:00,DRY,5.20,13.85,3.0,776.00,176.4
2019-06-26,07:10:00,DRY,5.23,13.90,3.0,776.00,195.4
2019-06-26,07:15:00,DRY,2.80,14.10,4.0,776.00,214.7
2019-06-26,07:20:00,DRY,2.50,14.27,4.0,776.00,234.9
2019-06-26,07:25:00,DRY,1.90,14.45,4.5,776.50,254.0
2019-06-26,07:30:00,DRY,1.97,14.50,4.0,776.33,275.1
2019-06-26,07:35:00,DRY,2.25,14.30,4.0,776.00,294.2
2019-06-26,07:40:00,DRY,4.53,14.37,4.0,776.00,315.8
2019-06-26,07:45:00,DRY,4.80,14.25,4.0,776.00,335.4
2019-06-26,07:50:00,DRY,4.93,14.33,4.3,776.00,356.4
2019-06-26,07:55:00,DRY,2.05,14.65,4.5,776.00,376.9
2019-06-26,08:00:00,DRY,3.67,14.53,4.7,776.00,397.0
2019-06-26,08:05:00,DRY,4.75,14.60,5.0,776.00,416.7
2019-06-26,08:10:00,DRY,4.00,14.53,4.3,776.33,436.5
2019-06-26,08:15:00,DRY,4.55,14.80,4.5,776.00,457.1
2019-06-26,08:20:00,DRY,4.57,14.77,5.3,776.00,477.7
2019-06-26,08:25:00,DRY,5.05,14.75,5.0,776.50,496.8
2019-06-26,08:30:00,DRY,4.47,14.97,5.0,776.33,516.1
2019-06-26,08:35:00,DRY,2.55,15.15,5.0,776.50,535.9
2019-06-26,08:40:00,DRY,5.27,15.20,5.3,776.33,556.2
2019-06-26,08:45:00,DRY,3.05,15.20,5.0,776.50,575.1
2019-06-26,08:50:00,DRY,3.20,15.30,5.0,776.00,593.9
2019-06-26,08:55:00,DRY,4.85,15.50,5.0,776.00,613.2
2019-06-26,09:00:00,DRY,3.40,15.43,4.7,776.33,631.7
2019-06-26,09:05:00,DRY,3.25,15.50,5.0,776.50,649.1
2019-06-26,09:10:00,DRY,4.63,15.47,4.7,776.00,667.2
2019-06-26,09:15:00,DRY,1.90,15.50,5.0,776.50,685.1
2019-06-26,09:20:00,DRY,2.33,15.53,5.7,776.00,703.5
2019-06-26,09:25:00,DRY,3.80,15.50,8.0,776.50,722.8
2019-06-26,09:30:00,DRY,2.87,15.57,7.0,776.33,737.7
2019-06-26,09:35:00,DRY,3.45,15.50,6.5,777.00,753.6
2019-06-26,09:40:00,DRY,3.20,15.70,5.7,777.00,770.2
2019-06-26,09:45:00,DRY,3.65,15.75,6.5,777.00,787.4
2019-06-26,09:50:00,DRY,4.37,15.77,6.3,776.67,804.2
2019-06-26,09:55:00,DRY,3.15,15.80,5.0,777.00,818.2
2019-06-26,10:00:00,DRY,4.67,15.93,5.7,777.00,832.9
2019-06-26,10:05:00,DRY,5.35,15.85,4.5,777.00,847.8
2019-06-26,10:10:00,DRY,3.23,15.77,5.7,777.00,862.3
2019-06-26,10:15:00,DRY,5.00,16.00,6.0,776.50,876.3
2019-06-26,10:20:00,DRY,3.73,15.87,6.7,777.00,890.4
2019-06-26,10:25:00,DRY,4.05,16.05,9.5,777.00,903.0
2019-06-26,10:30:00,DRY,4.03,15.97,8.0,777.00,916.1
2019-06-26,10:35:00,DRY,3.90,15.95,8.0,777.00,928.3
2019-06-26,10:40:00,DRY,3.60,16.17,10.7,777.00,941.1
2019-06-26,10:45:00,DRY,3.60,16.60,14.0,777.00,952.7
2019-06-26,10:50:00,DRY,3.07,16.53,14.3,777.00,964.3
2019-06-26,10:55:00,DRY,3.05,16.60,8.0,777.00,975.6
2019-06-26,11:00:00,DRY,3.87,16.63,9.0,777.00,986.6
2019-06-26,11:05:00,DRY,3.65,17.00,9.0,777.00,995.5
2019-06-26,11:10:00,DRY,3.63,16.80,9.7,777.00,1007.4
2019-06-26,11:15:00,DRY,3.55,16.55,9.5,777.00,1015.8
2019-06-26,11:20:00,DRY,3.53,16.83,9.7,777.00,1023.5
2019-06-26,11:25:00,DRY,4.25,16.90,11.5,777.00,1034.8
2019-06-26,11:30:00,DRY,2.57,17.13,7.7,777.00,1043.2
2019-06-26,11:35:00,DRY,3.30,16.60,5.5,777.00,1051.2
2019-06-26,11:40:00,DRY,3.73,16.83,7.0,777.00,1059.3
2019-06-26,11:45:00,DRY,4.45,17.00,7.0,777.00,1066.0
2019-06-26,11:50:00,DRY,5.13,17.17,8.0,777.00,1072.3
2019-06-26,11:55:00,DRY,3.55,17.30,8.0,777.00,1079.0
2019-06-26,12:00:00,DRY,3.43,17.13,10.3,777.00,1085.0
2019-06-26,12:05:00,DRY,3.40,17.60,12.0,777.00,1090.0
2019-06-26,12:10:00,DRY,3.37,17.57,15.0,777.00,1094.9
2019-06-26,12:15:00,DRY,3.40,17.40,9.0,777.00,1099.2
2019-06-26,12:20:00,DRY,3.77,17.27,9.7,777.00,1102.7
2019-06-26,12:25:00,DRY,2.35,17.30,6.0,777.00,1108.2
2019-06-26,12:30:00,DRY,3.87,16.97,8.7,777.00,1110.5
2019-06-26,12:35:00,DRY,5.10,17.05,12.5,777.00,1112.1
2019-06-26,12:40:00,DRY,2.97,17.43,12.0,777.00,1115.3
2019-06-26,12:45:00,DRY,3.05,17.65,14.0,777.00,1115.6
2019-06-26,12:50:00,DRY,3.63,17.43,13.7,777.00,1116.7
2019-06-26,12:55:00,DRY,4.65,17.75,11.0,777.00,1117.2
2019-06-26,13:00:00,DRY,5.33,17.47,11.3,777.00,1119.0
2019-06-26,13:05:00,DRY,3.30,17.25,9.5,777.00,1118.0
2019-06-26,13:10:00,DRY,4.10,17.37,9.0,776.00,1118.6
2019-06-26,13:15:00,DRY,4.90,17.05,10.0,776.00,1117.5
2019-06-26,13:20:00,DRY,4.10,17.20,9.0,776.00,1118.2
2019-06-26,13:25:00,DRY,4.10,17.20,7.5,776.00,1116.2
2019-06-26,13:30:00,DRY,6.20,16.70,9.0,776.00,1117.2
2019-06-26,13:35:00,DRY,1.00,16.80,10.0,776.00,1116.1
2019-06-26,13:40:00,DRY,3.80,16.77,16.7,776.00,1113.5
2019-06-26,13:45:00,DRY,4.25,16.90,22.0,776.00,1112.8
2019-06-26,13:50:00,DRY,4.00,17.20,20.3,776.00,1110.5
2019-06-26,13:55:00,DRY,3.75,17.45,21.5,776.00,1106.9
2019-06-26,14:00:00,DRY,2.30,17.30,16.3,776.00,1105.8
2019-06-26,14:05:00,DRY,2.00,17.30,20.0,776.00,1101.2
2019-06-26,14:10:00,DRY,4.97,17.10,17.3,776.00,1097.2
2019-06-26,14:15:00,DRY,3.90,16.90,16.0,776.00,1091.1
2019-06-26,14:20:00,DRY,4.13,16.90,18.3,776.00,1086.5
2019-06-26,14:25:00,DRY,3.80,16.90,15.5,776.00,1081.2